Location: Dumpton Point
(51.3500°N, 1.4433°E)
Time: 04:25:25
(UTC+00:00)

Altair - Pass Details

Date: 08 October 2022
Orbit: 1501 x 1682 km, 47.2° (Epoch: 04 December)

Event Time Altitude Azimuth Distance (km) Brightness Sun altitude
Rises 10:41:31 0° 288° (WNW) 4,898 9.8 31.2°
Reaches altitude 10° 10:45:31 10° 275° (W) 3,926 9.5 31.4°
Maximum altitude 10:52:42 23° 228° (SW) 3,042 9.6 31.7°
Drops below altitude 10° 10:59:56 10° 182° (S) 3,935 11.0 32.0°
Sets 11:03:59 0° 169° (S) 4,911 11.3 32.1°
